TimeEDT,TemperatureF,Dew PointF,Humidity,Sea Level PressureIn,VisibilityMPH,Wind Direction,Wind SpeedMPH,Gust SpeedMPH,PrecipitationIn,Events,Conditions,WindDirDegrees,DateUTC
12:53 AM,73.9,71.1,91,29.81,9.0,Calm,Calm,-,N/A,,Clear,0,2013-07-01 04:53:00
1:53 AM,73.0,70.0,90,29.82,10.0,Calm,Calm,-,N/A,,Clear,0,2013-07-01 05:53:00
2:53 AM,72.0,70.0,93,29.81,10.0,Calm,Calm,-,N/A,,Clear,0,2013-07-01 06:53:00
3:53 AM,71.1,69.1,93,29.80,9.0,East,3.5,-,N/A,,Clear,100,2013-07-01 07:53:00
4:53 AM,71.1,69.1,93,29.81,8.0,Calm,Calm,-,N/A,,Clear,0,2013-07-01 08:53:00
5:53 AM,71.1,68.0,90,29.81,8.0,Calm,Calm,-,N/A,,Clear,0,2013-07-01 09:53:00
6:53 AM,70.0,66.9,90,29.83,8.0,Calm,Calm,-,N/A,,Clear,0,2013-07-01 10:53:00
7:20 AM,69.8,68.0,94,29.81,8.0,Calm,Calm,-,N/A,,Partly Cloudy,0,2013-07-01 11:20:00
7:46 AM,71.6,69.8,94,29.81,9.0,Calm,Calm,-,N/A,,Mostly Cloudy,0,2013-07-01 11:46:00
7:53 AM,72.0,70.0,93,29.84,9.0,Calm,Calm,-,N/A,,Scattered Clouds,0,2013-07-01 11:53:00
8:53 AM,73.9,71.1,91,29.86,10.0,Calm,Calm,-,N/A,,Clear,0,2013-07-01 12:53:00
9:53 AM,79.0,73.9,84,29.86,10.0,Calm,Calm,-,N/A,,Clear,0,2013-07-01 13:53:00
10:53 AM,82.0,75.9,82,29.87,10.0,SSE,3.5,-,N/A,,Partly Cloudy,160,2013-07-01 14:53:00
11:53 AM,84.9,73.0,67,29.89,10.0,SSE,6.9,-,N/A,,Mostly Cloudy,160,2013-07-01 15:53:00
12:53 PM,84.9,73.0,67,29.88,10.0,South,9.2,-,N/A,,Scattered Clouds,170,2013-07-01 16:53:00
1:53 PM,86.0,73.0,65,29.86,10.0,SSE,15.0,19.6,N/A,,Scattered Clouds,160,2013-07-01 17:53:00
2:48 PM,73.4,69.8,88,29.85,1.0,WSW,19.6,40.3,0.00,Rain,Heavy Rain,240,2013-07-01 18:48:00
2:53 PM,73.0,66.9,81,29.88,1.0,West,12.7,26.5,N/A,Rain,Heavy Rain,260,2013-07-01 18:53:00
3:00 PM,73.4,66.2,78,29.84,3.0,West,5.8,-,N/A,Rain,Rain,260,2013-07-01 19:00:00
3:53 PM,80.1,69.1,69,29.86,10.0,South,6.9,-,N/A,,Overcast,180,2013-07-01 19:53:00
4:53 PM,84.9,71.1,63,29.86,10.0,South,10.4,-,N/A,,Partly Cloudy,180,2013-07-01 20:53:00
5:53 PM,81.0,71.1,72,29.86,10.0,South,8.1,-,N/A,,Overcast,170,2013-07-01 21:53:00
6:53 PM,82.9,71.1,67,29.87,10.0,South,4.6,-,N/A,,Partly Cloudy,170,2013-07-01 22:53:00
7:53 PM,82.0,70.0,67,29.90,10.0,SE,4.6,-,N/A,,Scattered Clouds,130,2013-07-01 23:53:00
8:53 PM,79.0,72.0,79,29.91,10.0,SE,6.9,-,N/A,,Clear,140,2013-07-02 00:53:00
9:53 PM,77.0,72.0,84,29.92,10.0,ESE,3.5,-,N/A,,Clear,110,2013-07-02 01:53:00
10:53 PM,75.9,72.0,87,29.93,10.0,South,3.5,-,N/A,,Clear,170,2013-07-02 02:53:00
11:53 PM,75.9,71.1,85,29.94,10.0,Calm,Calm,-,N/A,,Clear,0,2013-07-02 03:53:00